[[{"header":{"parameterUnit":"m.s-1","parameterCategory":1,"la1":30.2991,"la2":30.254,"lo1":-89.0895,"lo2":-89.0444,"dy":0.0017,"dx":0.0017,"nx":28,"ny":28,"refTime":"2024-10-11T03:00:00:Z","depth":0,"parameterNumber":2,"parameterNumberName":"U-component_of_WINDS"},"data":[0,0,0,0,0,0,0,0,0,0,0,0,0,0,0,0,0,0,0,0,0,0,0,0,0,0,0,0,0,0,0,0,0,0,0,0,0,0,0,0,0,0,0,0,0,0,0,0,0,0,0,0,0,0,0,0,0,0,-1.8152,-1.8151,0,-1.8097,-1.8097,-1.8096,-1.7967,-1.7965,-1.7962,-1.7959,-1.7907,-1.7908,-1.7909,0,0,0,0,0,0,0,0,0,0,0,0,0,-1.815,-1.8151,-1.8152,-1.8151,-1.8151,-1.8097,-1.8097,-1.8096,-1.7968,-1.7965,-1.7961,-1.7958,-1.7906,-1.7907,-1.7909,0,0,0,0,0,0,0,0,0,0,0,0,0,-1.8129,-1.8151,-1.8152,-1.808,-1.8073,-1.8097,-1.8096,-1.8096,-1.7968,-1.7964,-1.796,-1.7957,-1.7906,-1.7907,-1.7909,-1.7999,0,0,-1.7914,-1.7915,0,0,0,0,0,0,0,0,-1.8131,-1.8129,-1.8092,-1.8085,-1.8077,-1.8035,-1.8076,-1.8063,-1.797,-1.8008,-1.7959,-1.7955,-1.7953,-1.795,-1.7949,-1.7997,-1.7995,-1.7914,-1.7915,-1.7916,-1.7916,0,0,0,0,0,0,0,-1.8132,-1.8131,-1.813,-1.8091,-1.8083,-1.8052,-1.8045,-1.8073,-1.8004,-1.8005,-1.7995,-1.799,-1.7948,-1.7948,-1.7947,-1.7994,-1.7914,-1.7915,-1.7916,-1.7917,-1.8116,-1.812,0,0,0,0,0,0,-1.8144,-1.8133,-1.8132,-1.8129,-1.8095,-1.8056,-1.8047,-1.8053,-1.8003,-1.7992,-1.7994,-1.7985,-1.7947,-1.7945,-1.7944,-1.8048,-1.7916,-1.7917,-1.7918,-1.8112,-1.8117,-1.8122,0,0,0,0,0,0,-1.8144,-1.8145,-1.8134,-1.8128,-1.8125,-1.806,-1.8067,-1.8054,-1.8053,-1.7995,-1.7982,-1.8006,-1.7944,-1.7942,-1.7987,-1.8045,-1.7918,-1.7919,-1.8107,-1.8114,-1.812,-1.8257,0,0,0,0,0,0,-1.8144,-1.8146,-1.8178,-1.813,-1.8125,-1.8177,-1.8071,-1.8056,-1.8056,-1.8043,-1.8003,-1.7992,-1.794,-1.7985,-1.7989,-1.8045,-1.7921,-1.8101,-1.811,-1.8118,-1.8247,-1.8267,-1.8285,0,0,0,0,0,-1.8145,-1.8219,-1.818,-1.8181,-1.8164,-1.818,-1.8178,-1.8116,-1.8061,-1.8094,-1.8057,-1.7993,-1.8038,-1.7991,-1.7994,-1.8051,-1.8098,-1.8108,-1.8117,-1.8239,-1.8263,-1.8284,0,0,0,0,0,0,-1.8276,-1.8211,-1.8168,-1.8228,-1.8211,-1.8159,-1.8198,-1.8144,-1.8142,-1.813,-1.8054,-1.8046,-1.8103,-1.8081,-1.803,-1.8138,-1.8058,-1.8069,-1.8149,-1.8172,-1.8191,-1.8195,-1.7922,0,0,0,0,0,-1.8312,-1.8329,-1.8272,-1.8331,-1.8324,-1.8263,-1.8268,-1.8222,-1.8201,-1.8193,-1.8159,-1.8143,-1.8153,-1.8161,-1.8168,-1.8244,-1.8234,-1.8285,-1.8304,-1.8319,-1.833,-1.8371,-1.8393,-1.8154,-1.8154,-1.8154,0,0,-1.8386,-1.8353,-1.8368,-1.8356,-1.8337,-1.8358,-1.8258,-1.8284,-1.8299,-1.8197,-1.8238,-1.8213,-1.819,-1.8251,-1.8277,-1.8235,-1.8394,-1.8332,-1.8345,-1.8346,-1.8383,-1.8406,-1.8426,-1.816,-1.8159,-1.8158,0,0,-1.8532,-1.8508,-1.8555,-1.8539,-1.8511,-1.8471,-1.8483,-1.8439,-1.8419,-1.8458,-1.8383,-1.8401,-1.842,-1.8407,-1.8403,-1.8548,-1.849,-1.8552,-1.8651,-1.8692,-1.8711,-1.8727,-1.8781,-1.88,-1.8563,-1.8563,-1.8563,0,-1.8628,-1.8655,-1.8587,-1.8618,-1.8616,-1.8525,-1.8574,-1.8561,-1.8538,-1.854,-1.8494,-1.8517,-1.8495,-1.8553,-1.8589,-1.8588,-1.8601,-1.8556,-1.8713,-1.8729,-1.8743,-1.8794,-1.8814,-1.8571,-1.857,-1.8569,-1.8569,0,-1.8775,-1.8796,-1.8838,-1.8817,-1.882,-1.886,-1.88,-1.8811,-1.8766,-1.8731,-1.8774,-1.8745,-1.8744,-1.8755,-1.871,-1.8808,-1.8783,-1.8727,-1.8645,-1.8775,-1.8821,-1.884,-1.8582,-1.8579,-1.8577,-1.8575,0,0,-1.9,-1.8943,-1.896,-1.8951,-1.8915,-1.8931,-1.8968,-1.8967,-1.898,-1.8968,-1.8998,-1.9018,-1.8966,-1.8961,-1.8915,-1.8951,-1.907,-1.889,-1.8888,-1.8926,-1.9179,-1.9222,-1.9245,-1.9032,-1.9035,-1.9038,-1.9181,0,-1.9138,-1.9197,-1.9138,-1.921,-1.9229,-1.9145,-1.9177,-1.9161,-1.913,-1.9143,-1.9109,-1.9125,-1.9054,-1.9052,-1.9083,-1.9049,-1.912,-1.9038,-1.9062,-1.9063,-1.907,-1.9269,-1.9314,-1.945,-1.9198,-1.9201,-1.9203,0,-1.9306,-1.9302,-1.9376,-1.9338,-1.9344,-1.9375,-1.9371,-1.9384,-1.9364,-1.934,-1.9337,-1.9281,-1.9317,-1.9238,-1.9288,-1.9233,-1.924,-1.9225,-1.9229,-1.9229,-1.9141,-1.9275,-1.9492,-1.9513,-1.9231,-1.9228,-1.9227,0,-1.9465,-1.9478,-1.9524,-1.9519,-1.9476,-1.9499,-1.9483,-1.9459,-1.9463,-1.946,-1.9463,-1.9465,-1.9466,-1.947,-1.9418,-1.9364,-1.9475,-1.9391,-1.9457,-1.9459,-1.9484,-1.9483,-1.9706,-1.9488,-1.9488,-1.9487,-1.9487,0,-1.9625,-1.9674,-1.9595,-1.9624,-1.9677,-1.961,-1.9665,-1.964,-1.962,-1.9644,-1.9571,-1.9595,-1.9524,-1.9541,-1.9501,-1.955,-1.9551,-1.9533,-1.9522,-1.954,-1.9542,-1.9543,-1.9533,-1.9493,-1.9492,-1.949,-1.949,0,-1.9811,-1.976,-1.9805,-1.9761,-1.9751,-1.9793,-1.9755,-1.9781,-1.9747,-1.9778,-1.9781,-1.9728,-1.9745,-1.9693,-1.9701,-1.9674,-1.9746,-1.9719,-1.9753,-1.9745,-1.9815,-1.9809,-2.0046,-2.0074,-1.9838,-1.984,-1.9842,0,-1.9917,-1.9952,-1.9913,-1.9923,-1.991,-1.9928,-1.9932,-1.9869,-1.9877,-1.9859,-1.9888,-1.9898,-1.9904,-1.9935,-1.9898,-1.9905,-1.9878,-1.9961,-1.9879,-1.9897,-1.9881,-1.988,-1.9884,-1.9978,-1.9981,-1.9983,-1.9985,0,-2.011,-2.0084,-2.0092,-2.0093,-2.01,-2.0098,-2.009,-2.0104,-2.0036,-2.0049,-2.0065,-2.007,-2.0079,-2.0092,-2.0092,-2.0076,-2.0021,-2.0012,-2.0027,-2.0046,-2.0065,-2.0057,-1.98,-2.0006,-2.0004,-2.0003,-2.0001,-2.0001,-2.0259,-2.0288,-2.0265,-2.0278,-2.0266,-2.0262,-2.0284,-2.0253,-2.0265,-2.0268,-2.023,-2.0255,-2.0238,-2.0231,-2.0222,-2.0242,-2.0204,-2.0227,-2.0233,-2.0239,-2.0252,-2.0062,-2.0241,-2.0241,-2.024,-2.024,-2.0239,0,-2.045,-2.0432,-2.0444,-2.0437,-2.0448,-2.0394,-2.0384,-2.0397,-2.042,-2.0407,-2.0415,-2.0435,-2.0448,-2.0413,-2.0421,-2.0444,-2.0419,-2.0448,-2.0446,-2.0444,-2.0284,-2.027,-2.0468,-2.0468,-2.0468,-2.0468,-2.0468,-2.0468,-2.0551,-2.0597,-2.0569,-2.061,-2.0591,-2.0614,-2.0614,-2.061,-2.06,-2.0626,-2.0636,-2.0613,-2.0592,-2.0599,-2.0609,-2.0599,-2.0606,-2.0644,-2.0625,-2.0477,-2.0455,-2.0433,-2.042,-2.0646,-2.0646,-2.0783,-2.0784,-2.0785]},{"header":{"parameterUnit":"m.s-1","parameterCategory":1,"la1":30.2991,"la2":30.254,"lo1":-89.0895,"lo2":-89.0444,"dy":0.0017,"dx":0.0017,"nx":28,"ny":28,"refTime":"2024-10-11T03:00:00:Z","depth":0,"parameterNumber":3,"parameterNumberName":"V-component_of_WINDS"},"data":[0,0,0,0,0,0,0,0,0,0,0,0,0,0,0,0,0,0,0,0,0,0,0,0,0,0,0,0,0,0,0,0,0,0,0,0,0,0,0,0,0,0,0,0,0,0,0,0,0,0,0,0,0,0,0,0,0,0,1.1535,1.1534,0,1.1493,1.1492,1.1492,1.1506,1.1506,1.1507,1.1508,1.1458,1.1456,1.1454,0,0,0,0,0,0,0,0,0,0,0,0,0,1.162,1.1619,1.1535,1.1534,1.1534,1.1493,1.1492,1.1492,1.1505,1.1506,1.1508,1.1509,1.1459,1.1457,1.1454,0,0,0,0,0,0,0,0,0,0,0,0,0,1.1581,1.1618,1.1535,1.1536,1.1535,1.1493,1.1492,1.1492,1.1505,1.1507,1.1508,1.1509,1.146,1.1457,1.1454,1.1406,0,0,1.1444,1.1442,0,0,0,0,0,0,0,0,1.1583,1.1578,1.1536,1.1536,1.1535,1.1506,1.1504,1.1463,1.1505,1.1516,1.1508,1.151,1.1473,1.1468,1.1457,1.1404,1.1401,1.1443,1.1441,1.144,1.1439,0,0,0,0,0,0,0,1.1586,1.158,1.1518,1.1535,1.1535,1.1536,1.1532,1.1497,1.1487,1.1515,1.1516,1.1512,1.1473,1.1461,1.1456,1.1401,1.1443,1.1441,1.1439,1.1437,1.1304,1.1303,0,0,0,0,0,0,1.159,1.1582,1.1519,1.1517,1.1563,1.1534,1.1529,1.1514,1.1488,1.1485,1.1511,1.1512,1.1465,1.146,1.1455,1.1396,1.144,1.1437,1.1435,1.1306,1.1304,1.1302,0,0,0,0,0,0,1.1592,1.1584,1.1521,1.155,1.1542,1.1531,1.1513,1.1512,1.15,1.1484,1.1482,1.15,1.1466,1.1459,1.1418,1.1394,1.1435,1.1432,1.1308,1.1305,1.1303,1.1278,0,0,0,0,0,0,1.1594,1.1585,1.1568,1.1549,1.154,1.1487,1.1512,1.151,1.1495,1.1497,1.1474,1.1471,1.1467,1.1423,1.1415,1.139,1.143,1.131,1.1307,1.1304,1.1281,1.1275,1.127,0,0,0,0,0,1.1597,1.1561,1.1567,1.1559,1.1519,1.1486,1.148,1.1478,1.1493,1.1475,1.1465,1.1472,1.1399,1.1419,1.141,1.1384,1.1311,1.1308,1.1304,1.1283,1.1276,1.1271,0,0,0,0,0,0,1.1574,1.1559,1.1565,1.1522,1.1505,1.1488,1.1465,1.1471,1.1448,1.145,1.1447,1.1441,1.1399,1.1388,1.141,1.1336,1.1357,1.1352,1.1344,1.1338,1.1332,1.1334,1.1427,0,0,0,0,0,1.1565,1.1541,1.1528,1.1491,1.1483,1.1476,1.1461,1.1461,1.1443,1.1435,1.1421,1.1401,1.1374,1.1355,1.1329,1.1281,1.1274,1.1258,1.1253,1.1249,1.1243,1.1215,1.1207,1.1291,1.1291,1.1291,0,0,1.1544,1.1533,1.1517,1.1487,1.1474,1.1447,1.1469,1.144,1.1419,1.143,1.139,1.138,1.1357,1.1312,1.1291,1.1301,1.1219,1.1244,1.1241,1.1237,1.121,1.1202,1.1195,1.1288,1.1289,1.1289,0,0,1.1492,1.1482,1.145,1.1437,1.1418,1.1414,1.1406,1.1388,1.1382,1.1343,1.135,1.1325,1.1278,1.1262,1.1247,1.119,1.1195,1.1182,1.1152,1.1125,1.1118,1.1112,1.109,1.1082,1.1177,1.1177,1.1177,0,1.1467,1.1429,1.1432,1.1402,1.1388,1.1399,1.1365,1.1352,1.1325,1.1313,1.1326,1.1268,1.1253,1.1204,1.119,1.1179,1.1168,1.1183,1.112,1.1114,1.1108,1.1086,1.1078,1.1175,1.1175,1.1176,1.1176,0,1.1399,1.1372,1.1349,1.1324,1.1307,1.1276,1.1272,1.1254,1.1257,1.125,1.121,1.1194,1.1164,1.1153,1.1154,1.1103,1.111,1.1121,1.1142,1.1099,1.1078,1.107,1.1173,1.1173,1.1174,1.1174,0,0,1.1328,1.1308,1.1298,1.1287,1.1268,1.1246,1.1215,1.1189,1.1173,1.1154,1.1126,1.1087,1.1098,1.1081,1.1081,1.1057,1.1011,1.1071,1.1071,1.1058,1.0951,1.094,1.0931,1.1015,1.1014,1.1013,1.0952,0,1.1272,1.1219,1.1221,1.1171,1.1145,1.1156,1.1129,1.1113,1.1107,1.1083,1.1075,1.1047,1.1064,1.1054,1.1032,1.1021,1.0989,1.1026,1.0986,1.0984,1.0988,1.0921,1.0909,1.0853,1.0944,1.0943,1.0942,0,1.1199,1.118,1.1128,1.1113,1.1102,1.1077,1.1053,1.1031,1.1013,1.101,1.0992,1.0996,1.0962,1.0987,1.0938,1.0964,1.0948,1.0941,1.0938,1.0932,1.0958,1.0909,1.0835,1.0825,1.093,1.0931,1.0932,0,1.115,1.1111,1.1075,1.1065,1.1047,1.1029,1.102,1.1004,1.0988,1.0966,1.0956,1.093,1.0915,1.0894,1.089,1.0908,1.0841,1.0865,1.0835,1.0834,1.0817,1.0817,1.0736,1.0812,1.0812,1.0812,1.0812,0,1.1085,1.1052,1.1052,1.1029,1.0992,1.0995,1.0957,1.095,1.0935,1.0909,1.0918,1.0893,1.0891,1.0865,1.0861,1.0821,1.0815,1.0809,1.0808,1.0807,1.0807,1.0793,1.0796,1.081,1.081,1.0811,1.0811,0,1.1022,1.1022,1.0982,1.0969,1.0965,1.0938,1.0926,1.0903,1.0899,1.0866,1.0858,1.085,1.082,1.0815,1.0779,1.0777,1.0728,1.0732,1.0734,1.0734,1.0702,1.0704,1.0606,1.0593,1.0681,1.068,1.0679,0,1.098,1.0955,1.094,1.0924,1.0915,1.089,1.0874,1.0877,1.0859,1.0838,1.0817,1.0788,1.0765,1.0716,1.0706,1.0678,1.068,1.0648,1.0675,1.0675,1.0676,1.0676,1.0672,1.0641,1.064,1.0639,1.0639,0,1.0903,1.0904,1.0883,1.0861,1.0842,1.0825,1.0808,1.0794,1.0794,1.0774,1.0745,1.0727,1.0692,1.0662,1.0635,1.0624,1.063,1.0631,1.0622,1.0618,1.0619,1.0616,1.0716,1.0632,1.0633,1.0633,1.0634,1.0634,1.0847,1.0825,1.0811,1.0786,1.0775,1.0759,1.0737,1.0731,1.0707,1.068,1.0683,1.065,1.0632,1.0597,1.0584,1.0556,1.0566,1.0554,1.055,1.0546,1.0542,1.0627,1.0552,1.0552,1.0552,1.0552,1.0552,0,1.0768,1.0761,1.0738,1.0716,1.0696,1.0708,1.069,1.0672,1.0643,1.0628,1.0606,1.0571,1.0543,1.0532,1.0504,1.0484,1.0486,1.0476,1.0476,1.0473,1.0536,1.0545,1.0475,1.0475,1.0475,1.0475,1.0475,1.0475,1.0725,1.0688,1.0688,1.0644,1.0636,1.0606,1.0594,1.0579,1.0567,1.0529,1.0507,1.0501,1.0486,1.0457,1.0431,1.0428,1.0416,1.0404,1.0402,1.0461,1.0468,1.0476,1.0484,1.0402,1.0402,1.0341,1.034,1.034]}]]